<?xml version="1.0" encoding="UTF-8" standalone="no" ?>
<gpx xmlns="http://www.topografix.com/GPX/1/1" xmlns:xsi="http://www.w3.org/2001/XMLSchema-instance" xsi:schemaLocation="http://www.topografix.com/GPX/1/1 http://www.topografix.com/GPX/1/1/gpx.xsd" version="1.1" creator="VisuGPX - https://www.visugpx.com">
  <metadata>
    <name>Commelle-Vernay</name>
    <desc><![CDATA[Randonnée à Commelle-Vernay]]></desc>
  </metadata>
  <trk>
    <name><![CDATA[Commelle-Vernay_1]]></name>
    <trkseg>
      <trkpt lat="46.01114" lon="4.07098">
        <ele>300.4</ele>
        <time>2012-03-11T07:33:50Z</time>
      </trkpt>
      <trkpt lat="46.00916" lon="4.0697">
        <ele>302.2</ele>
        <time>2012-03-11T07:33:50Z</time>
      </trkpt>
      <trkpt lat="46.00715" lon="4.06941">
        <ele>305.5</ele>
        <time>2012-03-11T07:33:50Z</time>
      </trkpt>
      <trkpt lat="46.00571" lon="4.07094">
        <ele>307.8</ele>
        <time>2012-03-11T07:33:50Z</time>
      </trkpt>
      <trkpt lat="46.0039" lon="4.07225">
        <ele>310</ele>
        <time>2012-03-11T07:33:50Z</time>
      </trkpt>
      <trkpt lat="46.00404" lon="4.07544">
        <ele>308.5</ele>
        <time>2012-03-11T07:33:50Z</time>
      </trkpt>
      <trkpt lat="46.00414" lon="4.07859">
        <ele>303.8</ele>
        <time>2012-03-11T07:33:50Z</time>
      </trkpt>
      <trkpt lat="46.00401" lon="4.08189">
        <ele>301.6</ele>
        <time>2012-03-11T07:33:50Z</time>
      </trkpt>
      <trkpt lat="46.00316" lon="4.08321">
        <ele>305.3</ele>
        <time>2012-03-11T07:33:50Z</time>
      </trkpt>
      <trkpt lat="46.00135" lon="4.08203">
        <ele>308.7</ele>
        <time>2012-03-11T07:33:50Z</time>
      </trkpt>
      <trkpt lat="45.99929" lon="4.0817">
        <ele>313.8</ele>
        <time>2012-03-11T07:33:50Z</time>
      </trkpt>
      <trkpt lat="45.99746" lon="4.08234">
        <ele>324.6</ele>
        <time>2012-03-11T07:33:50Z</time>
      </trkpt>
      <trkpt lat="45.99585" lon="4.08364">
        <ele>331.9</ele>
        <time>2012-03-11T07:33:50Z</time>
      </trkpt>
      <trkpt lat="45.99407" lon="4.08453">
        <ele>331.2</ele>
        <time>2012-03-11T07:33:50Z</time>
      </trkpt>
      <trkpt lat="45.99222" lon="4.08471">
        <ele>332</ele>
        <time>2012-03-11T07:33:50Z</time>
      </trkpt>
      <trkpt lat="45.99114" lon="4.08694">
        <ele>333.9</ele>
        <time>2012-03-11T07:33:50Z</time>
      </trkpt>
      <trkpt lat="45.99085" lon="4.09021">
        <ele>329.6</ele>
        <time>2012-03-11T07:33:50Z</time>
      </trkpt>
      <trkpt lat="45.99084" lon="4.09331">
        <ele>328.9</ele>
        <time>2012-03-11T07:33:50Z</time>
      </trkpt>
      <trkpt lat="45.99021" lon="4.09646">
        <ele>321.9</ele>
        <time>2012-03-11T07:33:50Z</time>
      </trkpt>
      <trkpt lat="45.98934" lon="4.09644">
        <ele>322.1</ele>
        <time>2012-03-11T07:33:50Z</time>
      </trkpt>
      <trkpt lat="45.98928" lon="4.09636">
        <ele>322.8</ele>
        <time>2012-03-11T07:33:50Z</time>
      </trkpt>
      <trkpt lat="45.98865" lon="4.09522">
        <ele>329.2</ele>
        <time>2012-03-11T07:33:50Z</time>
      </trkpt>
      <trkpt lat="45.98709" lon="4.09362">
        <ele>334</ele>
        <time>2012-03-11T07:33:50Z</time>
      </trkpt>
      <trkpt lat="45.98559" lon="4.09187">
        <ele>339.3</ele>
        <time>2012-03-11T07:33:50Z</time>
      </trkpt>
      <trkpt lat="45.98424" lon="4.0897">
        <ele>349.1</ele>
        <time>2012-03-11T07:33:50Z</time>
      </trkpt>
      <trkpt lat="45.98252" lon="4.08865">
        <ele>361.9</ele>
        <time>2012-03-11T07:33:50Z</time>
      </trkpt>
      <trkpt lat="45.9808" lon="4.08781">
        <ele>368</ele>
        <time>2012-03-11T07:33:50Z</time>
      </trkpt>
      <trkpt lat="45.97924" lon="4.08637">
        <ele>378.8</ele>
        <time>2012-03-11T07:33:50Z</time>
      </trkpt>
      <trkpt lat="45.97762" lon="4.08492">
        <ele>394.6</ele>
        <time>2012-03-11T07:33:50Z</time>
      </trkpt>
      <trkpt lat="45.97592" lon="4.08361">
        <ele>405</ele>
        <time>2012-03-11T07:33:50Z</time>
      </trkpt>
      <trkpt lat="45.97428" lon="4.08319">
        <ele>419.4</ele>
        <time>2012-03-11T07:33:50Z</time>
      </trkpt>
      <trkpt lat="45.97265" lon="4.08154">
        <ele>434.2</ele>
        <time>2012-03-11T07:33:50Z</time>
      </trkpt>
      <trkpt lat="45.9712" lon="4.08145">
        <ele>428.1</ele>
        <time>2012-03-11T07:33:50Z</time>
      </trkpt>
      <trkpt lat="45.96944" lon="4.08204">
        <ele>429.4</ele>
        <time>2012-03-11T07:33:50Z</time>
      </trkpt>
      <trkpt lat="45.96765" lon="4.08283">
        <ele>428.6</ele>
        <time>2012-03-11T07:33:50Z</time>
      </trkpt>
      <trkpt lat="45.96578" lon="4.08314">
        <ele>435.2</ele>
        <time>2012-03-11T07:33:50Z</time>
      </trkpt>
      <trkpt lat="45.96392" lon="4.08333">
        <ele>439.9</ele>
        <time>2012-03-11T07:33:50Z</time>
      </trkpt>
      <trkpt lat="45.96211" lon="4.08351">
        <ele>447</ele>
        <time>2012-03-11T07:33:50Z</time>
      </trkpt>
      <trkpt lat="45.96048" lon="4.08219">
        <ele>448</ele>
        <time>2012-03-11T07:33:50Z</time>
      </trkpt>
      <trkpt lat="45.95884" lon="4.08252">
        <ele>454.4</ele>
        <time>2012-03-11T07:33:50Z</time>
      </trkpt>
      <trkpt lat="45.95725" lon="4.08352">
        <ele>467.1</ele>
        <time>2012-03-11T07:33:50Z</time>
      </trkpt>
      <trkpt lat="45.95544" lon="4.08321">
        <ele>479.3</ele>
        <time>2012-03-11T07:33:50Z</time>
      </trkpt>
      <trkpt lat="45.95371" lon="4.08327">
        <ele>493.9</ele>
        <time>2012-03-11T07:33:50Z</time>
      </trkpt>
      <trkpt lat="45.9519" lon="4.08333">
        <ele>498.8</ele>
        <time>2012-03-11T07:33:50Z</time>
      </trkpt>
      <trkpt lat="45.95185" lon="4.08053">
        <ele>479.1</ele>
        <time>2012-03-11T07:33:50Z</time>
      </trkpt>
      <trkpt lat="45.95292" lon="4.07805">
        <ele>485</ele>
        <time>2012-03-11T07:33:50Z</time>
      </trkpt>
      <trkpt lat="45.95387" lon="4.07559">
        <ele>478.2</ele>
        <time>2012-03-11T07:33:50Z</time>
      </trkpt>
      <trkpt lat="45.95411" lon="4.07545">
        <ele>477.6</ele>
        <time>2012-03-11T07:33:50Z</time>
      </trkpt>
      <trkpt lat="45.95277" lon="4.0746">
        <ele>478</ele>
        <time>2012-03-11T07:33:50Z</time>
      </trkpt>
      <trkpt lat="45.95125" lon="4.07307">
        <ele>498.4</ele>
        <time>2012-03-11T07:33:50Z</time>
      </trkpt>
      <trkpt lat="45.94993" lon="4.07089">
        <ele>497.9</ele>
        <time>2012-03-11T07:33:50Z</time>
      </trkpt>
      <trkpt lat="45.94837" lon="4.06987">
        <ele>478.4</ele>
        <time>2012-03-11T07:33:50Z</time>
      </trkpt>
      <trkpt lat="45.94737" lon="4.06866">
        <ele>464.8</ele>
        <time>2012-03-11T07:33:50Z</time>
      </trkpt>
      <trkpt lat="45.94618" lon="4.06676">
        <ele>468.4</ele>
        <time>2012-03-11T07:33:50Z</time>
      </trkpt>
      <trkpt lat="45.9452" lon="4.06438">
        <ele>493.8</ele>
        <time>2012-03-11T07:33:50Z</time>
      </trkpt>
      <trkpt lat="45.9441" lon="4.06194">
        <ele>495</ele>
        <time>2012-03-11T07:33:50Z</time>
      </trkpt>
      <trkpt lat="45.94328" lon="4.06029">
        <ele>479.1</ele>
        <time>2012-03-11T07:33:50Z</time>
      </trkpt>
      <trkpt lat="45.94158" lon="4.05944">
        <ele>478.6</ele>
        <time>2012-03-11T07:33:50Z</time>
      </trkpt>
      <trkpt lat="45.93996" lon="4.05835">
        <ele>484.1</ele>
        <time>2012-03-11T07:33:50Z</time>
      </trkpt>
      <trkpt lat="45.93982" lon="4.06182">
        <ele>500.4</ele>
        <time>2012-03-11T07:33:50Z</time>
      </trkpt>
      <trkpt lat="45.9403" lon="4.0651">
        <ele>506</ele>
        <time>2012-03-11T07:33:50Z</time>
      </trkpt>
      <trkpt lat="45.93948" lon="4.06724">
        <ele>499.7</ele>
        <time>2012-03-11T07:33:50Z</time>
      </trkpt>
      <trkpt lat="45.93774" lon="4.06818">
        <ele>493.6</ele>
        <time>2012-03-11T07:33:50Z</time>
      </trkpt>
      <trkpt lat="45.93626" lon="4.06913">
        <ele>475.5</ele>
        <time>2012-03-11T07:33:50Z</time>
      </trkpt>
      <trkpt lat="45.93469" lon="4.0677">
        <ele>482.1</ele>
        <time>2012-03-11T07:33:50Z</time>
      </trkpt>
      <trkpt lat="45.93287" lon="4.06719">
        <ele>470.2</ele>
        <time>2012-03-11T07:33:50Z</time>
      </trkpt>
      <trkpt lat="45.93117" lon="4.0682">
        <ele>466.5</ele>
        <time>2012-03-11T07:33:50Z</time>
      </trkpt>
      <trkpt lat="45.92942" lon="4.06763">
        <ele>467.8</ele>
        <time>2012-03-11T07:33:50Z</time>
      </trkpt>
      <trkpt lat="45.92772" lon="4.06674">
        <ele>461.8</ele>
        <time>2012-03-11T07:33:50Z</time>
      </trkpt>
      <trkpt lat="45.92642" lon="4.0647">
        <ele>453.3</ele>
        <time>2012-03-11T07:33:50Z</time>
      </trkpt>
      <trkpt lat="45.92558" lon="4.06135">
        <ele>451.6</ele>
        <time>2012-03-11T07:33:50Z</time>
      </trkpt>
      <trkpt lat="45.9254" lon="4.0579">
        <ele>441.4</ele>
        <time>2012-03-11T07:33:50Z</time>
      </trkpt>
      <trkpt lat="45.92535" lon="4.05478">
        <ele>433.5</ele>
        <time>2012-03-11T07:33:50Z</time>
      </trkpt>
      <trkpt lat="45.92516" lon="4.05163">
        <ele>400.7</ele>
        <time>2012-03-11T07:33:50Z</time>
      </trkpt>
      <trkpt lat="45.92644" lon="4.05156">
        <ele>389.2</ele>
        <time>2012-03-11T07:33:50Z</time>
      </trkpt>
      <trkpt lat="45.92705" lon="4.05215">
        <ele>388.4</ele>
        <time>2012-03-11T07:33:50Z</time>
      </trkpt>
      <trkpt lat="45.92815" lon="4.05437">
        <ele>376.5</ele>
        <time>2012-03-11T07:33:50Z</time>
      </trkpt>
      <trkpt lat="45.92892" lon="4.05236">
        <ele>395.9</ele>
        <time>2012-03-11T07:33:50Z</time>
      </trkpt>
      <trkpt lat="45.93012" lon="4.05012">
        <ele>413.7</ele>
        <time>2012-03-11T07:33:50Z</time>
      </trkpt>
      <trkpt lat="45.93063" lon="4.04951">
        <ele>416.7</ele>
        <time>2012-03-11T07:33:50Z</time>
      </trkpt>
      <trkpt lat="45.93209" lon="4.04934">
        <ele>431.6</ele>
        <time>2012-03-11T07:33:50Z</time>
      </trkpt>
      <trkpt lat="45.93245" lon="4.04657">
        <ele>449.7</ele>
        <time>2012-03-11T07:33:50Z</time>
      </trkpt>
      <trkpt lat="45.9341" lon="4.046">
        <ele>450.4</ele>
        <time>2012-03-11T07:33:50Z</time>
      </trkpt>
      <trkpt lat="45.93571" lon="4.04476">
        <ele>452.8</ele>
        <time>2012-03-11T07:33:50Z</time>
      </trkpt>
      <trkpt lat="45.93685" lon="4.04273">
        <ele>440.5</ele>
        <time>2012-03-11T07:33:50Z</time>
      </trkpt>
      <trkpt lat="45.93779" lon="4.03959">
        <ele>436.5</ele>
        <time>2012-03-11T07:33:50Z</time>
      </trkpt>
      <trkpt lat="45.93824" lon="4.03654">
        <ele>424.2</ele>
        <time>2012-03-11T07:33:50Z</time>
      </trkpt>
      <trkpt lat="45.93814" lon="4.03447">
        <ele>411.5</ele>
        <time>2012-03-11T07:33:50Z</time>
      </trkpt>
      <trkpt lat="45.93918" lon="4.0365">
        <ele>403.5</ele>
        <time>2012-03-11T07:33:50Z</time>
      </trkpt>
      <trkpt lat="45.94014" lon="4.03928">
        <ele>409.2</ele>
        <time>2012-03-11T07:33:50Z</time>
      </trkpt>
      <trkpt lat="45.94124" lon="4.04166">
        <ele>396.2</ele>
        <time>2012-03-11T07:33:50Z</time>
      </trkpt>
      <trkpt lat="45.94241" lon="4.04288">
        <ele>391.4</ele>
        <time>2012-03-11T07:33:50Z</time>
      </trkpt>
      <trkpt lat="45.94404" lon="4.04348">
        <ele>419.6</ele>
        <time>2012-03-11T07:33:50Z</time>
      </trkpt>
      <trkpt lat="45.94574" lon="4.04328">
        <ele>435.2</ele>
        <time>2012-03-11T07:33:50Z</time>
      </trkpt>
      <trkpt lat="45.94747" lon="4.04336">
        <ele>445.1</ele>
        <time>2012-03-11T07:33:50Z</time>
      </trkpt>
      <trkpt lat="45.94909" lon="4.04192">
        <ele>452.1</ele>
        <time>2012-03-11T07:33:50Z</time>
      </trkpt>
      <trkpt lat="45.95013" lon="4.04118">
        <ele>453.1</ele>
        <time>2012-03-11T07:33:50Z</time>
      </trkpt>
      <trkpt lat="45.95168" lon="4.04237">
        <ele>454.5</ele>
        <time>2012-03-11T07:33:50Z</time>
      </trkpt>
      <trkpt lat="45.95337" lon="4.04283">
        <ele>451.1</ele>
        <time>2012-03-11T07:33:50Z</time>
      </trkpt>
      <trkpt lat="45.95472" lon="4.04485">
        <ele>433.1</ele>
        <time>2012-03-11T07:33:50Z</time>
      </trkpt>
      <trkpt lat="45.95608" lon="4.0465">
        <ele>418.7</ele>
        <time>2012-03-11T07:33:50Z</time>
      </trkpt>
      <trkpt lat="45.95691" lon="4.04894">
        <ele>395.2</ele>
        <time>2012-03-11T07:33:50Z</time>
      </trkpt>
      <trkpt lat="45.9585" lon="4.05012">
        <ele>410.8</ele>
        <time>2012-03-11T07:33:50Z</time>
      </trkpt>
      <trkpt lat="45.95958" lon="4.05232">
        <ele>423.5</ele>
        <time>2012-03-11T07:33:50Z</time>
      </trkpt>
      <trkpt lat="45.96013" lon="4.05565">
        <ele>388.9</ele>
        <time>2012-03-11T07:33:50Z</time>
      </trkpt>
      <trkpt lat="45.9603" lon="4.05803">
        <ele>393.9</ele>
        <time>2012-03-11T07:33:50Z</time>
      </trkpt>
      <trkpt lat="45.96027" lon="4.06054">
        <ele>413.8</ele>
        <time>2012-03-11T07:33:50Z</time>
      </trkpt>
      <trkpt lat="45.96168" lon="4.06207">
        <ele>430.6</ele>
        <time>2012-03-11T07:33:50Z</time>
      </trkpt>
      <trkpt lat="45.96321" lon="4.06102">
        <ele>435.7</ele>
        <time>2012-03-11T07:33:50Z</time>
      </trkpt>
      <trkpt lat="45.96459" lon="4.05985">
        <ele>438.7</ele>
        <time>2012-03-11T07:33:50Z</time>
      </trkpt>
      <trkpt lat="45.96607" lon="4.05845">
        <ele>430.2</ele>
        <time>2012-03-11T07:33:50Z</time>
      </trkpt>
      <trkpt lat="45.9659" lon="4.05555">
        <ele>425</ele>
        <time>2012-03-11T07:33:50Z</time>
      </trkpt>
      <trkpt lat="45.96731" lon="4.05345">
        <ele>413.1</ele>
        <time>2012-03-11T07:33:50Z</time>
      </trkpt>
      <trkpt lat="45.96839" lon="4.05102">
        <ele>398.3</ele>
        <time>2012-03-11T07:33:50Z</time>
      </trkpt>
      <trkpt lat="45.96873" lon="4.04806">
        <ele>361.8</ele>
        <time>2012-03-11T07:33:50Z</time>
      </trkpt>
      <trkpt lat="45.96976" lon="4.04668">
        <ele>326</ele>
        <time>2012-03-11T07:33:50Z</time>
      </trkpt>
      <trkpt lat="45.97043" lon="4.04688">
        <ele>341.4</ele>
        <time>2012-03-11T07:33:50Z</time>
      </trkpt>
      <trkpt lat="45.97079" lon="4.04938">
        <ele>337.7</ele>
        <time>2012-03-11T07:33:50Z</time>
      </trkpt>
      <trkpt lat="45.97155" lon="4.05192">
        <ele>336.9</ele>
        <time>2012-03-11T07:33:50Z</time>
      </trkpt>
      <trkpt lat="45.97209" lon="4.05068">
        <ele>374.5</ele>
        <time>2012-03-11T07:33:50Z</time>
      </trkpt>
      <trkpt lat="45.97365" lon="4.05126">
        <ele>403.5</ele>
        <time>2012-03-11T07:33:50Z</time>
      </trkpt>
      <trkpt lat="45.97494" lon="4.05311">
        <ele>417.7</ele>
        <time>2012-03-11T07:33:50Z</time>
      </trkpt>
      <trkpt lat="45.97632" lon="4.05477">
        <ele>418</ele>
        <time>2012-03-11T07:33:50Z</time>
      </trkpt>
      <trkpt lat="45.97713" lon="4.05331">
        <ele>409.2</ele>
        <time>2012-03-11T07:33:50Z</time>
      </trkpt>
      <trkpt lat="45.97693" lon="4.05018">
        <ele>395.2</ele>
        <time>2012-03-11T07:33:50Z</time>
      </trkpt>
      <trkpt lat="45.9772" lon="4.04723">
        <ele>392.2</ele>
        <time>2012-03-11T07:33:50Z</time>
      </trkpt>
      <trkpt lat="45.97655" lon="4.04302">
        <ele>387.6</ele>
        <time>2012-03-11T07:33:50Z</time>
      </trkpt>
      <trkpt lat="45.97618" lon="4.04061">
        <ele>384.4</ele>
        <time>2012-03-11T07:33:50Z</time>
      </trkpt>
      <trkpt lat="45.97551" lon="4.03911">
        <ele>381.6</ele>
        <time>2012-03-11T07:33:50Z</time>
      </trkpt>
      <trkpt lat="45.97536" lon="4.03666">
        <ele>369</ele>
        <time>2012-03-11T07:33:50Z</time>
      </trkpt>
      <trkpt lat="45.97478" lon="4.03413">
        <ele>361.7</ele>
        <time>2012-03-11T07:33:50Z</time>
      </trkpt>
      <trkpt lat="45.97604" lon="4.03559">
        <ele>356.2</ele>
        <time>2012-03-11T07:33:50Z</time>
      </trkpt>
      <trkpt lat="45.97676" lon="4.03839">
        <ele>345.7</ele>
        <time>2012-03-11T07:33:50Z</time>
      </trkpt>
      <trkpt lat="45.9779" lon="4.04056">
        <ele>341.4</ele>
        <time>2012-03-11T07:33:50Z</time>
      </trkpt>
      <trkpt lat="45.9796" lon="4.04058">
        <ele>334.4</ele>
        <time>2012-03-11T07:33:50Z</time>
      </trkpt>
      <trkpt lat="45.98132" lon="4.0416">
        <ele>327.9</ele>
        <time>2012-03-11T07:33:50Z</time>
      </trkpt>
      <trkpt lat="45.98269" lon="4.04329">
        <ele>327</ele>
        <time>2012-03-11T07:33:50Z</time>
      </trkpt>
      <trkpt lat="45.98203" lon="4.04613">
        <ele>329.5</ele>
        <time>2012-03-11T07:33:50Z</time>
      </trkpt>
      <trkpt lat="45.98144" lon="4.0483">
        <ele>337.5</ele>
        <time>2012-03-11T07:33:50Z</time>
      </trkpt>
      <trkpt lat="45.98298" lon="4.04797">
        <ele>344.1</ele>
        <time>2012-03-11T07:33:50Z</time>
      </trkpt>
      <trkpt lat="45.98446" lon="4.04935">
        <ele>348.9</ele>
        <time>2012-03-11T07:33:50Z</time>
      </trkpt>
      <trkpt lat="45.98541" lon="4.05142">
        <ele>358.9</ele>
        <time>2012-03-11T07:33:50Z</time>
      </trkpt>
      <trkpt lat="45.98696" lon="4.05126">
        <ele>381.4</ele>
        <time>2012-03-11T07:33:50Z</time>
      </trkpt>
      <trkpt lat="45.98847" lon="4.05242">
        <ele>372.9</ele>
        <time>2012-03-11T07:33:50Z</time>
      </trkpt>
      <trkpt lat="45.98906" lon="4.05408">
        <ele>370.2</ele>
        <time>2012-03-11T07:33:50Z</time>
      </trkpt>
      <trkpt lat="45.99033" lon="4.05549">
        <ele>380.2</ele>
        <time>2012-03-11T07:33:50Z</time>
      </trkpt>
      <trkpt lat="45.99212" lon="4.0563">
        <ele>372.7</ele>
        <time>2012-03-11T07:33:50Z</time>
      </trkpt>
      <trkpt lat="45.99404" lon="4.05592">
        <ele>367.1</ele>
        <time>2012-03-11T07:33:50Z</time>
      </trkpt>
      <trkpt lat="45.99574" lon="4.055">
        <ele>366.3</ele>
        <time>2012-03-11T07:33:50Z</time>
      </trkpt>
      <trkpt lat="45.99739" lon="4.05385">
        <ele>358.9</ele>
        <time>2012-03-11T07:33:50Z</time>
      </trkpt>
      <trkpt lat="45.99901" lon="4.05269">
        <ele>351.5</ele>
        <time>2012-03-11T07:33:50Z</time>
      </trkpt>
      <trkpt lat="46.00073" lon="4.05229">
        <ele>341.8</ele>
        <time>2012-03-11T07:33:50Z</time>
      </trkpt>
      <trkpt lat="46.00169" lon="4.05138">
        <ele>337.8</ele>
        <time>2012-03-11T07:33:50Z</time>
      </trkpt>
      <trkpt lat="46.0003" lon="4.05096">
        <ele>345</ele>
        <time>2012-03-11T07:33:50Z</time>
      </trkpt>
      <trkpt lat="46" lon="4.04935">
        <ele>326</ele>
        <time>2012-03-11T07:33:50Z</time>
      </trkpt>
      <trkpt lat="46.00091" lon="4.04668">
        <ele>301.1</ele>
        <time>2012-03-11T07:33:50Z</time>
      </trkpt>
      <trkpt lat="46.00212" lon="4.04538">
        <ele>310.2</ele>
        <time>2012-03-11T07:33:50Z</time>
      </trkpt>
      <trkpt lat="46.00375" lon="4.04588">
        <ele>298.9</ele>
        <time>2012-03-11T07:33:50Z</time>
      </trkpt>
      <trkpt lat="46.00533" lon="4.04694">
        <ele>295.8</ele>
        <time>2012-03-11T07:33:50Z</time>
      </trkpt>
      <trkpt lat="46.00686" lon="4.04784">
        <ele>295.6</ele>
        <time>2012-03-11T07:33:50Z</time>
      </trkpt>
      <trkpt lat="46.00815" lon="4.04937">
        <ele>288.1</ele>
        <time>2012-03-11T07:33:50Z</time>
      </trkpt>
      <trkpt lat="46.00723" lon="4.05121">
        <ele>297.3</ele>
        <time>2012-03-11T07:33:50Z</time>
      </trkpt>
      <trkpt lat="46.00851" lon="4.05285">
        <ele>297.4</ele>
        <time>2012-03-11T07:33:50Z</time>
      </trkpt>
      <trkpt lat="46.01022" lon="4.05326">
        <ele>290.9</ele>
        <time>2012-03-11T07:33:50Z</time>
      </trkpt>
      <trkpt lat="46.01108" lon="4.05537">
        <ele>295.1</ele>
        <time>2012-03-11T07:33:50Z</time>
      </trkpt>
      <trkpt lat="46.01223" lon="4.05802">
        <ele>291.1</ele>
        <time>2012-03-11T07:33:50Z</time>
      </trkpt>
      <trkpt lat="46.01337" lon="4.05906">
        <ele>282.8</ele>
        <time>2012-03-11T07:33:50Z</time>
      </trkpt>
      <trkpt lat="46.01497" lon="4.06012">
        <ele>272</ele>
        <time>2012-03-11T07:33:50Z</time>
      </trkpt>
      <trkpt lat="46.01599" lon="4.06302">
        <ele>272.1</ele>
        <time>2012-03-11T07:33:50Z</time>
      </trkpt>
      <trkpt lat="46.01657" lon="4.06509">
        <ele>275</ele>
        <time>2012-03-11T07:33:50Z</time>
      </trkpt>
      <trkpt lat="46.01519" lon="4.06476">
        <ele>279.8</ele>
        <time>2012-03-11T07:33:50Z</time>
      </trkpt>
      <trkpt lat="46.01387" lon="4.06484">
        <ele>293.1</ele>
        <time>2012-03-11T07:33:50Z</time>
      </trkpt>
      <trkpt lat="46.01223" lon="4.06561">
        <ele>298.8</ele>
        <time>2012-03-11T07:33:50Z</time>
      </trkpt>
      <trkpt lat="46.01278" lon="4.06869">
        <ele>298</ele>
        <time>2012-03-11T07:33:50Z</time>
      </trkpt>
      <trkpt lat="46.01225" lon="4.07018">
        <ele>299</ele>
        <time>2012-03-11T07:33:50Z</time>
      </trkpt>
      <trkpt lat="46.01225" lon="4.0702">
        <ele>299</ele>
        <time>2012-03-11T07:33:50Z</time>
      </trkpt>
      <trkpt lat="46.01225" lon="4.07022">
        <ele>299</ele>
        <time>2012-03-11T07:33:50Z</time>
      </trkpt>
      <trkpt lat="46.01224" lon="4.07025">
        <ele>299</ele>
        <time>2012-03-11T07:33:50Z</time>
      </trkpt>
      <trkpt lat="46.01223" lon="4.07027">
        <ele>299</ele>
        <time>2012-03-11T07:33:50Z</time>
      </trkpt>
      <trkpt lat="46.01223" lon="4.07029">
        <ele>299</ele>
        <time>2012-03-11T07:33:50Z</time>
      </trkpt>
      <trkpt lat="46.01223" lon="4.07031">
        <ele>299</ele>
        <time>2012-03-11T07:33:50Z</time>
      </trkpt>
      <trkpt lat="46.01221" lon="4.07034">
        <ele>299</ele>
        <time>2012-03-11T07:33:50Z</time>
      </trkpt>
      <trkpt lat="46.0122" lon="4.07036">
        <ele>299</ele>
        <time>2012-03-11T07:33:50Z</time>
      </trkpt>
      <trkpt lat="46.01217" lon="4.07039">
        <ele>299</ele>
        <time>2012-03-11T07:33:50Z</time>
      </trkpt>
      <trkpt lat="46.01216" lon="4.07041">
        <ele>299</ele>
        <time>2012-03-11T07:33:50Z</time>
      </trkpt>
      <trkpt lat="46.01215" lon="4.07043">
        <ele>299</ele>
        <time>2012-03-11T07:33:50Z</time>
      </trkpt>
      <trkpt lat="46.01213" lon="4.07046">
        <ele>299</ele>
        <time>2012-03-11T07:33:50Z</time>
      </trkpt>
      <trkpt lat="46.01212" lon="4.07048">
        <ele>299</ele>
        <time>2012-03-11T07:33:50Z</time>
      </trkpt>
      <trkpt lat="46.0121" lon="4.0705">
        <ele>299</ele>
        <time>2012-03-11T07:33:50Z</time>
      </trkpt>
      <trkpt lat="46.01209" lon="4.07052">
        <ele>299</ele>
        <time>2012-03-11T07:33:50Z</time>
      </trkpt>
      <trkpt lat="46.01208" lon="4.07054">
        <ele>299</ele>
        <time>2012-03-11T07:33:50Z</time>
      </trkpt>
      <trkpt lat="46.01206" lon="4.07057">
        <ele>299</ele>
        <time>2012-03-11T07:33:50Z</time>
      </trkpt>
      <trkpt lat="46.01204" lon="4.07059">
        <ele>299</ele>
        <time>2012-03-11T07:33:50Z</time>
      </trkpt>
      <trkpt lat="46.01203" lon="4.07061">
        <ele>299</ele>
        <time>2012-03-11T07:33:50Z</time>
      </trkpt>
      <trkpt lat="46.01202" lon="4.07064">
        <ele>299</ele>
        <time>2012-03-11T07:33:50Z</time>
      </trkpt>
      <trkpt lat="46.01202" lon="4.07066">
        <ele>299</ele>
        <time>2012-03-11T07:33:50Z</time>
      </trkpt>
      <trkpt lat="45.414" lon="4.38798">
        <ele>597.1</ele>
        <time>2012-03-11T07:33:50Z</time>
      </trkpt>
    </trkseg>
  </trk>
</gpx>